IGO6767 VIDP-VABB

Flight info

Callsign IGO6767
Flight time N/A
Altitude 38000
Route DUDUM6H DUDUM Q2 AKTIV IGBAN2A
Aircraft A20N/M-SDE2E3FGHIRWXY/LB1

Departure

Time 2026-05-05 08:58
Airport Indira Gandhi International Airport (VIDP)

Arrival

Time N/A
Airport Chhatrapati Shivaji Maharaj International Airport (VABB)
Time Latitude Longitude Altitude Speed Heading
2026-05-05 08:26 28.55238 77.08443 773 ft 0 kts 328°
2026-05-05 08:46 28.55236 77.08444 773 ft 2 kts 328°
2026-05-05 08:47 28.55219 77.08456 773 ft 3 kts 329°
2026-05-05 08:47 28.55201 77.08468 773 ft 3 kts 328°
2026-05-05 08:47 28.55184 77.08481 773 ft 3 kts 327°
2026-05-05 08:47 28.55167 77.08493 773 ft 3 kts 322°
2026-05-05 08:48 28.55156 77.08505 773 ft 2 kts 299°
2026-05-05 08:48 28.55152 77.08516 773 ft 1 kts 266°
2026-05-05 08:48 28.55152 77.08522 773 ft 1 kts 260°
2026-05-05 08:48 28.55153 77.08526 773 ft 1 kts 258°
2026-05-05 08:49 28.55153 77.08529 774 ft 0 kts 261°
2026-05-05 08:52 28.55151 77.08520 773 ft 3 kts 253°
2026-05-05 08:52 28.55138 77.08488 773 ft 6 kts 242°
2026-05-05 08:53 28.55110 77.08432 773 ft 10 kts 238°
2026-05-05 08:53 28.55078 77.08372 773 ft 8 kts 238°
2026-05-05 08:53 28.55031 77.08323 773 ft 10 kts 220°
2026-05-05 08:53 28.55020 77.08241 773 ft 12 kts 284°
2026-05-05 08:54 28.55045 77.08136 773 ft 15 kts 284°
2026-05-05 08:54 28.55073 77.08007 773 ft 18 kts 283°
2026-05-05 08:54 28.55107 77.07856 773 ft 21 kts 289°
2026-05-05 08:54 28.55085 77.07704 773 ft 22 kts 217°
2026-05-05 08:55 28.55064 77.07595 773 ft 2 kts 232°
2026-05-05 08:55 28.55038 77.07589 773 ft 5 kts 186°
2026-05-05 08:55 28.54989 77.07581 773 ft 9 kts 193°
2026-05-05 08:55 28.54922 77.07562 773 ft 12 kts 196°
2026-05-05 08:56 28.54838 77.07529 773 ft 14 kts 211°
2026-05-05 08:56 28.54754 77.07457 773 ft 17 kts 216°
2026-05-05 08:56 28.54665 77.07390 772 ft 15 kts 199°
2026-05-05 08:56 28.54589 77.07448 772 ft 14 kts 135°
2026-05-05 08:57 28.54519 77.07536 771 ft 16 kts 127°
2026-05-05 08:57 28.54477 77.07658 770 ft 18 kts 105°
2026-05-05 08:57 28.54406 77.07981 773 ft 78 kts 103°
2026-05-05 08:57 28.54225 77.08831 774 ft 140 kts 103°
2026-05-05 08:58 28.53965 77.10017 1193 ft 153 kts 104°
2026-05-05 08:58 28.53704 77.11155 1982 ft 143 kts 104°
2026-05-05 08:58 28.53470 77.12282 2492 ft 154 kts 102°
2026-05-05 08:58 28.53255 77.13556 2943 ft 179 kts 100°
2026-05-05 08:59 28.53057 77.14995 3808 ft 189 kts 98°
2026-05-05 08:59 28.52912 77.16360 5109 ft 168 kts 97°
2026-05-05 08:59 28.52718 77.17722 5727 ft 193 kts 105°
2026-05-05 08:59 28.52454 77.19313 6310 ft 215 kts 97°
2026-05-05 09:00 28.52255 77.21078 6797 ft 236 kts 97°
2026-05-05 09:00 28.52039 77.23014 7243 ft 258 kts 97°
2026-05-05 09:00 28.51804 77.25118 7652 ft 280 kts 97°
2026-05-05 09:00 28.51549 77.27400 8014 ft 303 kts 97°
2026-05-05 09:01 28.51272 77.29866 8416 ft 327 kts 98°
2026-05-05 09:01 28.50615 77.32436 8685 ft 353 kts 118°
2026-05-05 09:01 28.49014 77.34534 9540 ft 354 kts 145°
2026-05-05 09:01 28.46786 77.35692 10449 ft 355 kts 169°
2026-05-05 09:02 28.44305 77.35938 11063 ft 363 kts 183°
2026-05-05 09:02 28.41846 77.36164 12341 ft 352 kts 167°
2026-05-05 09:02 28.39540 77.37183 13120 ft 361 kts 162°
2026-05-05 09:02 28.37018 77.37391 13381 ft 374 kts 194°
2026-05-05 09:03 28.34673 77.36135 13933 ft 379 kts 221°
2026-05-05 09:03 28.33075 77.33771 14454 ft 383 kts 246°
2026-05-05 09:03 28.32350 77.30846 14915 ft 392 kts 264°
2026-05-05 09:03 28.32281 77.27777 15873 ft 382 kts 265°
2026-05-05 09:04 28.31675 77.24917 17281 ft 367 kts 248°
2026-05-05 09:04 28.30402 77.22412 18203 ft 370 kts 236°
2026-05-05 09:04 28.28809 77.20087 18787 ft 376 kts 232°
2026-05-05 09:04 28.27121 77.17804 19386 ft 379 kts 231°
2026-05-05 09:05 28.25414 77.15513 19999 ft 382 kts 232°
2026-05-05 09:05 28.23703 77.13189 20572 ft 385 kts 232°
2026-05-05 09:05 28.21990 77.10838 21185 ft 388 kts 232°
2026-05-05 09:05 28.20270 77.08460 21763 ft 392 kts 233°
2026-05-05 09:06 28.18540 77.06060 22336 ft 396 kts 233°
2026-05-05 09:06 28.16788 77.03629 22895 ft 400 kts 233°
2026-05-05 09:06 28.15024 77.01180 23434 ft 404 kts 233°
2026-05-05 09:06 28.14130 76.99942 23678 ft 406 kts 233°
2026-05-05 09:07 28.13378 76.98899 23870 ft 407 kts 233°
2026-05-05 09:07 28.11541 76.96355 24362 ft 409 kts 232°
2026-05-05 09:07 28.09731 76.93851 24811 ft 412 kts 233°
2026-05-05 09:08 28.07932 76.91364 25268 ft 415 kts 233°
2026-05-05 09:08 28.06068 76.88788 25747 ft 418 kts 233°
2026-05-05 09:08 28.04246 76.86271 26187 ft 421 kts 233°
2026-05-05 09:08 28.02387 76.83704 26631 ft 423 kts 233°
2026-05-05 09:09 28.00534 76.81148 27070 ft 425 kts 233°
2026-05-05 09:09 27.98663 76.78544 27487 ft 428 kts 233°
2026-05-05 09:09 27.96794 76.75901 27913 ft 430 kts 234°
2026-05-05 09:09 27.94924 76.73250 28324 ft 433 kts 234°
2026-05-05 09:10 27.93034 76.70574 28720 ft 435 kts 234°
2026-05-05 09:10 27.91132 76.67888 29113 ft 438 kts 234°
2026-05-05 09:10 27.89224 76.65198 29490 ft 440 kts 234°
2026-05-05 09:10 27.87303 76.62493 29875 ft 441 kts 234°
2026-05-05 09:11 27.85375 76.59782 30229 ft 443 kts 234°
2026-05-05 09:11 27.83444 76.57068 30562 ft 445 kts 234°
2026-05-05 09:11 27.81443 76.54379 30891 ft 449 kts 231°
2026-05-05 09:11 27.79191 76.51919 31267 ft 452 kts 225°
2026-05-05 09:12 27.76699 76.49735 31710 ft 455 kts 219°
2026-05-05 09:12 27.74065 76.47762 32140 ft 454 kts 218°
2026-05-05 09:12 27.71435 76.45791 32560 ft 453 kts 219°
2026-05-05 09:12 27.68815 76.43821 32980 ft 452 kts 219°
2026-05-05 09:13 27.66210 76.41860 33381 ft 450 kts 219°
2026-05-05 09:13 27.63603 76.39898 33744 ft 450 kts 219°
2026-05-05 09:13 27.60995 76.37955 34061 ft 449 kts 219°
2026-05-05 09:13 27.58395 76.36018 34358 ft 448 kts 219°
2026-05-05 09:14 27.55842 76.34093 34624 ft 447 kts 220°
2026-05-05 09:14 27.53256 76.32140 34882 ft 447 kts 220°
2026-05-05 09:14 27.50628 76.30185 35131 ft 448 kts 218°
2026-05-05 09:14 27.47973 76.28342 35373 ft 448 kts 218°
2026-05-05 09:15 27.45295 76.26535 35693 ft 449 kts 218°
2026-05-05 09:15 27.42658 76.24754 35911 ft 448 kts 218°
2026-05-05 09:15 27.39985 76.22941 36113 ft 448 kts 218°
2026-05-05 09:15 27.37319 76.21124 36362 ft 448 kts 218°
2026-05-05 09:16 27.34658 76.19304 36564 ft 448 kts 218°
2026-05-05 09:16 27.31997 76.17483 36794 ft 448 kts 218°
2026-05-05 09:16 27.29339 76.15664 36990 ft 447 kts 218°
2026-05-05 09:16 27.26682 76.13845 37227 ft 447 kts 218°
2026-05-05 09:17 27.24027 76.12030 37494 ft 445 kts 218°
2026-05-05 09:17 27.21378 76.10220 37680 ft 446 kts 218°
2026-05-05 09:17 27.18727 76.08410 37875 ft 446 kts 219°
2026-05-05 09:18 27.13441 76.04803 37908 ft 444 kts 219°
2026-05-05 09:18 27.08148 76.01193 37913 ft 446 kts 218°
2026-05-05 09:19 27.02852 75.97587 37903 ft 445 kts 218°
2026-05-05 09:19 26.97555 75.93984 37913 ft 445 kts 218°
2026-05-05 09:20 26.92257 75.90384 37916 ft 446 kts 218°
2026-05-05 09:20 26.86957 75.86787 37917 ft 446 kts 218°
2026-05-05 09:21 26.81517 75.83388 37916 ft 453 kts 211°
2026-05-05 09:21 26.75589 75.80840 37917 ft 457 kts 208°
2026-05-05 09:22 26.69649 75.78327 37914 ft 456 kts 208°
2026-05-05 09:22 26.63709 75.75808 37912 ft 456 kts 208°
2026-05-05 09:23 26.57772 75.73294 37902 ft 456 kts 208°
2026-05-05 09:23 26.51833 75.70781 37900 ft 456 kts 208°
2026-05-05 09:24 26.45897 75.68273 37896 ft 456 kts 208°
2026-05-05 09:24 26.39962 75.65768 37896 ft 456 kts 208°
2026-05-05 09:25 26.34067 75.63284 37895 ft 456 kts 208°
2026-05-05 09:25 26.28131 75.60784 37898 ft 456 kts 208°
2026-05-05 09:26 26.22201 75.58290 37895 ft 456 kts 208°
2026-05-05 09:26 26.16272 75.55798 37895 ft 455 kts 208°
2026-05-05 09:27 26.10341 75.53309 37893 ft 455 kts 208°
2026-05-05 09:27 26.04414 75.50825 37893 ft 455 kts 208°
2026-05-05 09:28 25.98494 75.48346 37890 ft 453 kts 207°
2026-05-05 09:28 25.92572 75.45868 37897 ft 456 kts 208°
2026-05-05 09:29 25.86638 75.43389 37897 ft 455 kts 207°
2026-05-05 09:29 25.80704 75.40944 37900 ft 455 kts 207°
2026-05-05 09:30 25.74757 75.38500 37901 ft 455 kts 207°
2026-05-05 09:30 25.69817 75.36468 37901 ft 455 kts 207°
2026-05-05 09:31 25.63875 75.34027 37900 ft 456 kts 207°
2026-05-05 09:31 25.57928 75.31585 37900 ft 456 kts 207°
2026-05-05 09:32 25.51983 75.29147 37897 ft 456 kts 207°
2026-05-05 09:32 25.46033 75.26710 37892 ft 456 kts 208°
2026-05-05 09:33 25.40083 75.24275 37894 ft 456 kts 207°
2026-05-05 09:33 25.34132 75.21842 37906 ft 456 kts 207°
2026-05-05 09:34 25.28182 75.19413 37896 ft 456 kts 207°
2026-05-05 09:34 25.22236 75.16987 37894 ft 456 kts 208°
2026-05-05 09:35 25.16290 75.14564 37899 ft 456 kts 207°
2026-05-05 09:35 25.07369 75.10933 37897 ft 456 kts 207°
2026-05-05 09:36 25.01420 75.08516 37901 ft 455 kts 207°
2026-05-05 09:36 24.95475 75.06102 37897 ft 455 kts 207°
2026-05-05 09:37 24.89527 75.03689 37896 ft 455 kts 207°
2026-05-05 09:37 24.83582 75.01280 37901 ft 455 kts 207°
2026-05-05 09:38 24.77633 74.98872 37902 ft 455 kts 207°
2026-05-05 09:38 24.71690 74.96469 37904 ft 455 kts 207°
2026-05-05 09:39 24.65748 74.94069 37901 ft 455 kts 207°
2026-05-05 09:39 24.59805 74.91670 37903 ft 455 kts 207°
2026-05-05 09:40 24.53857 74.89278 37906 ft 455 kts 207°
2026-05-05 09:40 24.47915 74.86884 37906 ft 455 kts 207°
2026-05-05 09:41 24.41973 74.84494 37908 ft 455 kts 207°
2026-05-05 09:41 24.36035 74.82109 37902 ft 455 kts 207°
2026-05-05 09:42 24.30097 74.79727 37912 ft 454 kts 207°
2026-05-05 09:42 24.24959 74.77667 37910 ft 455 kts 207°
2026-05-05 09:43 24.23673 74.77151 37894 ft 455 kts 207°
2026-05-05 09:44 24.20479 74.75872 37905 ft 454 kts 207°